DEORBITSAIL

Satellite information

Favourite Embed

Satellite Type and Status

PAYLOADIN ORBIT

Key statistics

Satellite DEORBITSAIL at a glance.

Uptime

3763

Days in orbit

Revolutions

≈ 15.0

Per day

Orbit

SSO

Sun Synchronous Orbit

Inclination

97.6

Latest

Satellite identification and parameters

Extended collection of information and parameters for DEORBITSAIL.

Object identification

Identified? True

Debris? False

Object name: DEORBITSAIL

International designator: 2015-032E

Object number (NORAD): 40719

Object ID (CCSDS): 40719

Country: UNITED KINGDOM (UK)

Current information (Y/N): Y

RCS size: SMALL

Orbital parameters

Period: 96.052 minutes

Inclination: 97.624 deg

SMA: 6947.537 km

Apoapsis: 575.022 km

Periapsis: 563.782 km

RAAN: 157.0207 deg

Eccentricy: 0.00080892

Argument of periapsis: 286.0734 deg

Mean anomaly: 73.9599 deg

Mean motion: 14.99189142 rev/day

Mean motion (dot): 0.00010364 rev/day2

B* drag term: 0.00085463307 1/REarth

Two-line elements (TLE)

Creation date: Oct. 28, 2025, 2:18 a.m.

Reference frame: TEME

Reference center: EARTH

Epoch: Oct. 27, 2025, 1:24 p.m. UTC

TLE line 0: 0 DEORBITSAIL

TLE line 1: 1 40719U 15032E 25300.55840074 .00010364 00000-0 85463-3 0 9998

TLE line 2: 2 40719 97.6240 157.0207 0008089 286.0734 73.9599 14.99189142556330

Live tracking on map

Real-time ground track for satellite DEORBITSAIL.

In-orbit conjunctions

There are no conjunctions computed for DEORBITSAIL, at the moment. Check back to stay up to date, as we update our databases every day.

Go to all conjunctions

Associated space launch

The Polar Satellite Launch Vehicle (PSLV), in its thirtieth flight (PSLV-C28), will launch three identical DMC3 optical earth observation satellites. A, B and C. It will also carry two auxiliary satellites from UK. CBNT-1, a technology demonstrator earth observation micro satellite, and De-OrbitSail, a technology demonstrator nano satellite.

DEORBITSAIL was lifted into orbit during the mission ‘PSLV XL | DMC-3A, DMC-3B, DMC-3C, CBNT-1 & DeOrbitSAIL’, on board a PSLV-XL space rocket.

The launch took place on July 10, 2015, 4:28 p.m. from Satish Dhawan Space Centre First Launch Pad.

For more information about the launch, click the button.

Launch to space PSLV XL | DMC-3A, DMC-3B, DMC-3C, CBNT-1 & DeOrbitSAIL
PSLV XL | DMC-3A, DMC-3B, DMC-3C, CBNT-1 & DeOrbitSAIL

Agency: N/A

Status: Launch Successful

Launch date: July 10, 2015, 4:28 p.m. UTC

Rocket: PSLV-XL

Launch pad: Satish Dhawan Space Centre First Launch Pad

Location: Satish Dhawan Space Centre, India

...

Latest news about this satellite

There are no fresh news available about this satellite. Check back as we update our databases every day.


Newsletter sign-up

Weekly statistics, charts and insights to help you stay on top of the space industry.